Retour au catalogue

OPS 4682 DEB

ActifPO
NORAD 38407·DEBRIS·🇺🇸 United States

Lancé Apr 3, 1965 depuis Vandenberg Space Force Base

Loading…

Prochains Passages (prochaines 24 heures)

TLE

VieillissantSource: Space-Track

Époque: Sep 7, 2026, 14:18 UTC

1 38407U 65027DL  26250.59589923 -.00000152  00000-0 -55153-3 0  9999
2 38407  90.2480   9.2604 0027525 274.1532  85.6442 12.96977766311951

Suivez OPS 4682 DEB en temps réel avec AllMySat

Download on the App Store